Вернуться в каталог

TJS-17 AKM

АктивенGEO
NORAD 63629·ROCKET BODY·🇨🇳 China

Запущен Apr 10, 2025 с Xichang Satellite Launch Center

Loading…

TLE

СвежийSource: Space-Track

Эпоха: Sep 14, 2026, 02:36 UTC

1 63629U 25073C   26257.10845488  .00000046  00000-0  00000+0 0  9992
2 63629   1.3137  81.7450 0011508  99.3258 261.8788  0.98859138  5117

Отслеживайте TJS-17 AKM в реальном времени с AllMySat

Download on the App Store